Starlink 30767

operational
NORAD ID: 58126 Int'l Des: 2023-162 Owner: SPXS Country: US Constellation: starlink
LEOCIRCULAR

关于 Starlink 30767

正在加载描述...

实时位置

正在加载3D地球...

即将过境

高度历史

Altitude vs Time

uPlot chart will show altitude changes over time

两行轨道根数

1 58126U 23162J 25258.60240729 .00001924 00000-0 15751-3 0 9996
2 58126 43.0055 4.3518 0001964 285.5316 74.5310 15.02536782105962
Epoch: Sep 15, 2025 • Age: 11 hours

当前状态

高度 561.0 km
速度 7.59 km/s
星下点 33.30°N, 23.02°E
发射日期 Oct 22, 2023
运行时间 1.9 years
类型 internet

技术详情

分类 Payload
质量 730.00 kg
干质量 700.00 kg
总质量 730.00 kg
长度 0.30 m
直径 4.10 m
跨度 29.00 m
形状 Box + pan
制造商 SPXS
平台类型 Starlink V2M
阶段状态 In Orbit
所有者/国家 SPXS/US

大型星座

Loading constellations...